This is the latest recevied weather packets stored in our database for station/object K7FED. If no packets are shown the sender has not sent any weather packets the latest 10 day(s).
| Time | Temp. | Humidity | Pressure | Rain* | Wind** | Luminosity | Snow |
|---|---|---|---|---|---|---|---|
| 1777749262 | 20° C | 62% | 1010.9 hPa | 0 mm | - | 233 W/m² | - |
| 1777748963 | 20° C | 61% | 1010.9 hPa | 0 mm | - | 186 W/m² | - |
| 1777748663 | 20° C | 61% | 1010.9 hPa | 0 mm | - | 201 W/m² | - |
| 1777748360 | 20° C | 61% | 1010.9 hPa | 0 mm | - | 182 W/m² | - |
| 1777748060 | 20.56° C | 60% | 1010.9 hPa | 0 mm | - | 157 W/m² | - |
| 1777747760 | 21.11° C | 59% | 1010.9 hPa | 0 mm | - | 149 W/m² | - |
| 1777747460 | 21.11° C | 59% | 1010.9 hPa | 0 mm | - | 167 W/m² | - |
| 1777747160 | 21.11° C | 58% | 1010.9 hPa | 0 mm | - | 178 W/m² | - |
| 1777746861 | 21.67° C | 58% | 1010.9 hPa | 0 mm | - | 214 W/m² | - |
| 1777746557 | 21.11° C | 58% | 1010.9 hPa | 0 mm | - | 355 W/m² | - |
| 1777746257 | 20.56° C | 60% | 1011 hPa | 0 mm | - | 291 W/m² | - |
| 1777745958 | 20.56° C | 63% | 1011 hPa | 0 mm | - | 214 W/m² | - |
| 1777745656 | 20.56° C | 61% | 1011.1 hPa | 0 mm | - | 185 W/m² | - |
| 1777745357 | 20.56° C | 62% | 1011 hPa | 0 mm | - | 180 W/m² | - |
| 1777745057 | 20° C | 63% | 1011.1 hPa | 0 mm | - | 206 W/m² | - |
| 1777744757 | 19.44° C | 64% | 1011.1 hPa | 0 mm | - | 149 W/m² | - |
| 1777744458 | 19.44° C | 64% | 1011.1 hPa | 0 mm | - | 142 W/m² | - |
| 1777744157 | 19.44° C | 65% | 1011.1 hPa | 0 mm | - | 231 W/m² | - |
| 1777743855 | 18.89° C | 68% | 1011.1 hPa | 0 mm | - | 226 W/m² | - |
| 1777743555 | 18.89° C | 67% | 1011.1 hPa | 0 mm | - | 155 W/m² | - |
| 1777743252 | 18.89° C | 69% | 1011 hPa | 0 mm | - | 124 W/m² | - |
| 1777742952 | 18.33° C | 70% | 1011 hPa | 0 mm | - | 123 W/m² | - |
| 1777742653 | 18.33° C | 70% | 1011 hPa | 0 mm | - | 245 W/m² | - |
| 1777742354 | 17.78° C | 71% | 1011 hPa | 0 mm | - | 140 W/m² | - |
| 1777742052 | 17.78° C | 72% | 1011 hPa | 0 mm | - | 134 W/m² | - |
* Rain latest hour (hover to see other rain measurements)
** Current wind speed in m/s (hover to see current wind gust speed)